CCA1327 ZBAA-ZGGG

Flight info

Callsign CCA1327
Flight time 2h 35m
Altitude 36100
Route RUSDO W45 IKAVO
Aircraft B77W/H-SDE1E2E3FGHIJ2J3J4J5M1RWXY/LB1D1

Departure

Time 2026-05-04 08:26
Airport Beijing Capital International Airport (ZBAA)

Arrival

Time 2026-05-04 11:01
Airport Guangzhou Baiyun International Airport (ZGGG)
Time Latitude Longitude Altitude Speed Heading
2026-05-04 07:33 40.06486 116.60597 132 ft 0 kts 83°
2026-05-04 08:08 40.06486 116.60594 131 ft 2 kts 83°
2026-05-04 08:08 40.06484 116.60575 131 ft 2 kts 83°
2026-05-04 08:10 40.06441 116.60481 131 ft 0 kts 349°
2026-05-04 08:11 40.06442 116.60481 131 ft 0 kts 349°
2026-05-04 08:14 40.06462 116.60477 131 ft 7 kts 353°
2026-05-04 08:16 40.06872 116.60334 131 ft 7 kts 267°
2026-05-04 08:16 40.06865 116.60255 131 ft 11 kts 263°
2026-05-04 08:16 40.06855 116.60147 131 ft 11 kts 263°
2026-05-04 08:17 40.06853 116.60126 131 ft 0 kts 264°
2026-05-04 08:17 40.06853 116.60124 131 ft 1 kts 264°
2026-05-04 08:17 40.06850 116.60079 131 ft 5 kts 270°
2026-05-04 08:19 40.07429 116.59949 131 ft 15 kts 353°
2026-05-04 08:19 40.07537 116.59931 131 ft 15 kts 353°
2026-05-04 08:20 40.07639 116.59916 131 ft 14 kts 355°
2026-05-04 08:20 40.07733 116.59901 131 ft 13 kts 352°
2026-05-04 08:20 40.07824 116.59885 131 ft 12 kts 352°
2026-05-04 08:20 40.07921 116.59871 131 ft 18 kts 354°
2026-05-04 08:21 40.08050 116.59851 131 ft 18 kts 354°
2026-05-04 08:21 40.08172 116.59833 131 ft 17 kts 353°
2026-05-04 08:21 40.08287 116.59815 131 ft 15 kts 353°
2026-05-04 08:21 40.08394 116.59798 132 ft 14 kts 353°
2026-05-04 08:22 40.08518 116.59779 132 ft 22 kts 353°
2026-05-04 08:22 40.08698 116.59751 132 ft 26 kts 353°
2026-05-04 08:24 40.08955 116.59549 132 ft 6 kts 238°
2026-05-04 08:24 40.08929 116.59503 132 ft 5 kts 220°
2026-05-04 08:24 40.08894 116.59489 132 ft 5 kts 179°
2026-05-04 08:24 40.08890 116.59489 132 ft 0 kts 176°
2026-05-04 08:25 40.08879 116.59490 132 ft 6 kts 176°
2026-05-04 08:25 40.08681 116.59521 132 ft 62 kts 175°
2026-05-04 08:25 40.08006 116.59624 132 ft 129 kts 173°
2026-05-04 08:25 40.06963 116.59794 310 ft 165 kts 175°
2026-05-04 08:26 40.05804 116.59956 988 ft 172 kts 175°
2026-05-04 08:27 39.95394 116.61597 6013 ft 269 kts 176°
2026-05-04 08:28 39.93539 116.61890 6912 ft 279 kts 176°
2026-05-04 08:28 39.91572 116.62196 7776 ft 289 kts 176°
2026-05-04 08:28 39.89547 116.62511 8650 ft 299 kts 176°
2026-05-04 08:28 39.87444 116.62839 9507 ft 308 kts 176°
2026-05-04 08:29 39.85293 116.63173 10363 ft 317 kts 176°
2026-05-04 08:29 39.83042 116.63521 10996 ft 335 kts 176°
2026-05-04 08:29 39.80669 116.63864 11674 ft 351 kts 178°
2026-05-04 08:31 39.65403 116.51776 17024 ft 416 kts 250°
2026-05-04 08:33 39.63140 116.25030 19525 ft 432 kts 266°
2026-05-04 08:33 39.62899 116.21171 19663 ft 432 kts 266°
2026-05-04 08:35 39.61028 115.93042 25685 ft 465 kts 267°
2026-05-04 08:35 39.60815 115.88844 26435 ft 468 kts 272°
2026-05-04 08:35 39.61040 115.84624 27125 ft 470 kts 281°
2026-05-04 08:35 39.61756 115.80466 27846 ft 472 kts 289°
2026-05-04 08:37 39.70633 115.57929 33228 ft 455 kts 300°
2026-05-04 08:37 39.71936 115.54103 33954 ft 455 kts 292°
2026-05-04 08:37 39.72797 115.50126 34569 ft 457 kts 284°
2026-05-04 08:38 39.73210 115.46032 35079 ft 460 kts 276°
2026-05-04 08:38 39.73165 115.41813 35566 ft 462 kts 268°
2026-05-04 08:38 39.72662 115.37678 35923 ft 468 kts 261°
2026-05-04 08:40 39.62691 115.10864 36022 ft 473 kts 247°
2026-05-04 08:40 39.61164 115.07061 36036 ft 472 kts 246°
2026-05-04 08:41 39.58132 114.99514 36038 ft 472 kts 246°
2026-05-04 08:41 39.55094 114.91954 36055 ft 473 kts 246°
2026-05-04 08:42 39.52056 114.84409 36066 ft 473 kts 247°
2026-05-04 08:42 39.49005 114.76843 36065 ft 472 kts 247°
2026-05-04 08:43 39.45953 114.69291 36064 ft 474 kts 247°
2026-05-04 08:43 39.42899 114.61756 36055 ft 471 kts 246°
2026-05-04 08:44 39.39840 114.54221 36065 ft 473 kts 246°
2026-05-04 08:46 39.27527 114.24149 36059 ft 472 kts 244°
2026-05-04 08:46 39.23447 114.17414 36060 ft 484 kts 227°
2026-05-04 08:47 39.17873 114.12437 36056 ft 495 kts 209°
2026-05-04 08:47 39.11261 114.09542 36048 ft 502 kts 199°
2026-05-04 08:48 39.04505 114.07153 36047 ft 501 kts 198°
2026-05-04 08:48 38.97807 114.04784 36043 ft 500 kts 199°
2026-05-04 08:49 38.91056 114.02397 36045 ft 500 kts 199°
2026-05-04 08:50 38.67494 113.94083 36041 ft 502 kts 199°
2026-05-04 08:51 38.60753 113.91713 36029 ft 500 kts 199°
2026-05-04 08:51 38.54041 113.89356 36002 ft 499 kts 199°
2026-05-04 08:52 38.47330 113.87003 35970 ft 498 kts 199°
2026-05-04 08:52 38.40589 113.84645 35980 ft 498 kts 199°
2026-05-04 08:54 38.13737 113.75343 35983 ft 498 kts 199°
2026-05-04 08:55 38.07032 113.73035 36004 ft 498 kts 199°
2026-05-04 08:55 38.00309 113.70726 36005 ft 497 kts 199°
2026-05-04 09:01 37.27932 113.46137 36133 ft 517 kts 199°
2026-05-04 09:01 37.20956 113.43793 36137 ft 516 kts 199°
2026-05-04 09:02 37.13989 113.41456 36123 ft 517 kts 199°
2026-05-04 09:02 37.07039 113.39130 36126 ft 516 kts 199°
2026-05-04 09:03 37.00137 113.36824 36129 ft 514 kts 199°
2026-05-04 09:03 36.93205 113.34512 36141 ft 514 kts 198°
2026-05-04 09:04 36.86240 113.32194 36146 ft 514 kts 198°
2026-05-04 09:04 36.79327 113.29897 36153 ft 513 kts 198°
2026-05-04 09:05 36.72379 113.27593 36155 ft 514 kts 198°
2026-05-04 09:05 36.65455 113.25301 36154 ft 513 kts 198°
2026-05-04 09:06 36.58530 113.23014 36144 ft 513 kts 198°
2026-05-04 09:08 36.30855 113.13913 36111 ft 514 kts 198°
2026-05-04 09:08 36.23970 113.11574 36101 ft 511 kts 202°
2026-05-04 09:09 36.17395 113.08249 36122 ft 509 kts 206°
2026-05-04 09:09 36.10881 113.04836 36132 ft 509 kts 206°
2026-05-04 09:10 36.04312 113.01407 36137 ft 509 kts 206°
2026-05-04 09:10 35.97803 112.98019 36141 ft 509 kts 206°
2026-05-04 09:11 35.91249 112.94614 36138 ft 509 kts 206°
2026-05-04 09:11 35.84702 112.91222 36130 ft 509 kts 206°
2026-05-04 09:12 35.78162 112.87839 36122 ft 509 kts 206°
2026-05-04 09:14 35.52041 112.74243 36112 ft 508 kts 206°
2026-05-04 09:14 35.45510 112.70839 36103 ft 508 kts 206°
2026-05-04 09:15 35.39016 112.67461 36105 ft 508 kts 207°
2026-05-04 09:15 35.32425 112.64040 36101 ft 508 kts 206°
2026-05-04 09:17 35.02683 112.49921 36037 ft 512 kts 200°
2026-05-04 09:18 34.95879 112.47433 36033 ft 511 kts 200°
2026-05-04 09:18 34.89048 112.44935 36030 ft 511 kts 200°
2026-05-04 09:19 34.82159 112.42418 36013 ft 513 kts 200°
2026-05-04 09:19 34.75269 112.40185 36020 ft 516 kts 192°
2026-05-04 09:20 34.68019 112.39999 36023 ft 524 kts 180°
2026-05-04 09:20 34.60731 112.40632 36018 ft 524 kts 179°
2026-05-04 09:21 34.53453 112.41269 36010 ft 524 kts 180°
2026-05-04 09:21 34.46188 112.41898 36021 ft 523 kts 180°
2026-05-04 09:22 34.38871 112.42528 36033 ft 525 kts 180°
2026-05-04 09:22 34.31546 112.43155 36038 ft 525 kts 180°
2026-05-04 09:23 34.24251 112.43778 36035 ft 524 kts 180°
2026-05-04 09:23 34.16953 112.44400 36041 ft 526 kts 180°
2026-05-04 09:25 33.87750 112.46876 36062 ft 523 kts 180°
2026-05-04 09:26 33.80462 112.47491 36056 ft 524 kts 180°
2026-05-04 09:26 33.73157 112.48106 36050 ft 524 kts 180°
2026-05-04 09:27 33.65850 112.48721 36046 ft 523 kts 180°
2026-05-04 09:27 33.58574 112.49339 36029 ft 524 kts 180°
2026-05-04 09:28 33.51297 112.49960 36036 ft 524 kts 180°
2026-05-04 09:28 33.43973 112.50584 36044 ft 522 kts 180°
2026-05-04 09:29 33.36723 112.51199 36037 ft 523 kts 181°
2026-05-04 09:29 33.29420 112.51819 36035 ft 521 kts 181°
2026-05-04 09:30 33.22167 112.52432 36025 ft 522 kts 181°
2026-05-04 09:30 33.14888 112.53047 36032 ft 523 kts 181°
2026-05-04 09:31 33.07653 112.53657 36024 ft 522 kts 181°
2026-05-04 09:31 33.00396 112.54269 36039 ft 521 kts 181°
2026-05-04 09:32 32.93175 112.54658 36036 ft 516 kts 188°
2026-05-04 09:34 32.69207 112.47478 36032 ft 505 kts 201°
2026-05-04 09:34 32.65828 112.46381 36021 ft 504 kts 201°
2026-05-04 09:34 32.59041 112.44177 36032 ft 505 kts 201°
2026-05-04 09:35 32.52245 112.41972 36026 ft 502 kts 201°
2026-05-04 09:35 32.45509 112.39790 36021 ft 504 kts 201°
2026-05-04 09:37 32.18425 112.31043 36241 ft 503 kts 201°
2026-05-04 09:38 32.15066 112.29963 36095 ft 503 kts 201°
2026-05-04 09:38 32.11653 112.28867 36044 ft 498 kts 201°
2026-05-04 09:38 32.04870 112.26987 36044 ft 505 kts 196°
2026-05-04 09:39 31.97910 112.25575 35915 ft 502 kts 196°
2026-05-04 09:39 31.94489 112.24884 36035 ft 506 kts 196°
2026-05-04 09:39 31.90966 112.24171 36034 ft 507 kts 196°
2026-05-04 09:40 31.83979 112.22761 36042 ft 505 kts 196°
2026-05-04 09:40 31.77040 112.21358 36036 ft 505 kts 196°
2026-05-04 09:42 31.49344 112.15778 36060 ft 504 kts 197°
2026-05-04 09:43 31.42392 112.14382 36043 ft 501 kts 197°
2026-05-04 09:43 31.35536 112.12849 36069 ft 499 kts 199°
2026-05-04 09:44 31.28720 112.11150 36063 ft 498 kts 199°
2026-05-04 09:46 31.01516 112.04467 36042 ft 497 kts 200°
2026-05-04 09:46 30.94692 112.02805 36074 ft 494 kts 199°
2026-05-04 09:47 30.87940 112.01162 36058 ft 494 kts 200°
2026-05-04 09:49 30.60844 111.94604 36042 ft 495 kts 200°
2026-05-04 09:51 30.37225 111.88944 36039 ft 495 kts 200°
2026-05-04 09:51 30.30419 111.87317 36046 ft 496 kts 200°
2026-05-04 09:52 30.23645 111.85702 36045 ft 492 kts 200°
2026-05-04 09:52 30.16887 111.84091 36043 ft 494 kts 201°
2026-05-04 09:53 30.10160 111.82491 36051 ft 493 kts 201°
2026-05-04 09:53 30.03368 111.80877 36053 ft 493 kts 201°
2026-05-04 09:54 29.96637 111.79281 36056 ft 492 kts 201°
2026-05-04 09:54 29.89908 111.77684 36061 ft 496 kts 201°
2026-05-04 09:55 29.83140 111.76085 36056 ft 493 kts 201°
2026-05-04 09:55 29.76364 111.74484 36059 ft 492 kts 201°
2026-05-04 09:56 29.69634 111.72895 36059 ft 494 kts 201°
2026-05-04 09:56 29.62839 111.71293 36060 ft 496 kts 201°
2026-05-04 09:57 29.56081 111.69704 36061 ft 493 kts 201°
2026-05-04 09:57 29.49259 111.68100 36061 ft 496 kts 201°
2026-05-04 09:58 29.42514 111.66518 36062 ft 495 kts 201°
2026-05-04 09:58 29.35745 111.64990 36057 ft 498 kts 197°
2026-05-04 10:00 29.07386 111.63352 36063 ft 511 kts 193°
2026-05-04 10:04 28.57989 111.59274 36094 ft 502 kts 195°
2026-05-04 10:04 28.51020 111.58514 36093 ft 502 kts 195°
2026-05-04 10:05 28.44019 111.57755 36101 ft 504 kts 195°
2026-05-04 10:05 28.37009 111.57005 36116 ft 504 kts 195°
2026-05-04 10:06 28.29967 111.56260 36128 ft 503 kts 195°
2026-05-04 10:06 28.22987 111.55521 36138 ft 504 kts 195°
2026-05-04 10:08 27.98432 111.52930 36153 ft 504 kts 195°
2026-05-04 10:08 27.91404 111.52192 36151 ft 503 kts 195°
2026-05-04 10:09 27.84383 111.51456 36151 ft 503 kts 195°
2026-05-04 10:09 27.77417 111.50728 36145 ft 501 kts 195°
2026-05-04 10:10 27.70406 111.49994 36147 ft 504 kts 195°
2026-05-04 10:10 27.63395 111.49263 36140 ft 500 kts 195°
2026-05-04 10:11 27.56436 111.48537 36137 ft 500 kts 195°
2026-05-04 10:11 27.49447 111.47808 36131 ft 502 kts 195°
2026-05-04 10:12 27.42433 111.47079 36124 ft 501 kts 195°
2026-05-04 10:12 27.35418 111.46350 36123 ft 501 kts 195°
2026-05-04 10:13 27.28448 111.45628 36118 ft 500 kts 195°
2026-05-04 10:13 27.21447 111.44903 36111 ft 498 kts 194°
2026-05-04 10:14 27.14500 111.44184 36112 ft 499 kts 194°
2026-05-04 10:16 26.89937 111.46605 36110 ft 548 kts 159°
2026-05-04 10:16 26.86700 111.48927 36119 ft 558 kts 150°
2026-05-04 10:16 26.81130 111.55190 36125 ft 576 kts 132°
2026-05-04 10:17 26.76519 111.62585 36124 ft 578 kts 130°
2026-05-04 10:19 26.57350 111.91311 36129 ft 574 kts 133°
2026-05-04 10:19 26.52442 111.98408 36136 ft 572 kts 133°
2026-05-04 10:20 26.47522 112.05484 36143 ft 572 kts 134°
2026-05-04 10:20 26.42632 112.12492 36139 ft 572 kts 134°
2026-05-04 10:21 26.37694 112.19548 36145 ft 571 kts 134°
2026-05-04 10:21 26.32769 112.26569 36148 ft 574 kts 134°
2026-05-04 10:22 26.25389 112.37067 36161 ft 572 kts 134°
2026-05-04 10:23 26.20447 112.44082 36167 ft 573 kts 134°
2026-05-04 10:25 26.00633 112.72092 36138 ft 573 kts 134°
2026-05-04 10:25 25.95698 112.79041 36134 ft 573 kts 135°
2026-05-04 10:26 25.90739 112.86015 36134 ft 573 kts 135°
2026-05-04 10:26 25.85784 112.92969 36136 ft 570 kts 135°
2026-05-04 10:27 25.80164 112.99054 36139 ft 554 kts 152°
2026-05-04 10:27 25.76927 113.01362 36144 ft 541 kts 160°
2026-05-04 10:27 25.73565 113.03091 36152 ft 530 kts 168°
2026-05-04 10:28 25.66420 113.04933 36164 ft 508 kts 184°
2026-05-04 10:28 25.59401 113.05211 36172 ft 501 kts 188°
2026-05-04 10:29 25.52371 113.05276 36166 ft 500 kts 189°
2026-05-04 10:29 25.45367 113.05229 36168 ft 499 kts 189°
2026-05-04 10:30 25.38422 113.05124 36174 ft 498 kts 189°
2026-05-04 10:30 25.31426 113.04984 36171 ft 499 kts 189°
2026-05-04 10:31 25.24446 113.04829 36164 ft 498 kts 190°
2026-05-04 10:32 24.99979 113.04235 36213 ft 497 kts 189°
2026-05-04 10:33 24.92970 113.04060 36212 ft 498 kts 189°
2026-05-04 10:33 24.89516 113.03973 36059 ft 502 kts 189°
2026-05-04 10:33 24.85969 113.03882 35329 ft 505 kts 189°
2026-05-04 10:34 24.82446 113.03796 34416 ft 501 kts 189°
2026-05-04 10:34 24.78981 113.03713 33524 ft 495 kts 190°
2026-05-04 10:34 24.75704 113.03632 32673 ft 491 kts 190°
2026-05-04 10:34 24.72239 113.03546 31792 ft 488 kts 189°
2026-05-04 10:35 24.68855 113.03462 31113 ft 483 kts 189°
2026-05-04 10:35 24.65514 113.03381 30655 ft 474 kts 189°
2026-05-04 10:35 24.62261 113.03302 30210 ft 465 kts 189°
2026-05-04 10:35 24.59031 113.03222 29760 ft 460 kts 189°
2026-05-04 10:36 24.55812 113.03140 29305 ft 459 kts 189°
2026-05-04 10:36 24.52637 113.03059 28857 ft 458 kts 189°
2026-05-04 10:36 24.49442 113.02979 28415 ft 455 kts 189°
2026-05-04 10:36 24.46239 113.03112 27966 ft 460 kts 181°
2026-05-04 10:37 24.43043 113.03741 27523 ft 465 kts 175°
2026-05-04 10:37 24.39905 113.04579 27090 ft 465 kts 174°
2026-05-04 10:37 24.36767 113.05432 26653 ft 466 kts 173°
2026-05-04 10:37 24.33608 113.06291 26208 ft 465 kts 173°
2026-05-04 10:39 24.14837 113.11375 23594 ft 484 kts 172°
2026-05-04 10:39 24.11531 113.12265 23158 ft 493 kts 172°
2026-05-04 10:39 24.08203 113.13166 22732 ft 492 kts 172°
2026-05-04 10:40 24.04877 113.14067 22312 ft 489 kts 172°
2026-05-04 10:40 24.01586 113.14954 21897 ft 485 kts 172°
2026-05-04 10:40 23.98341 113.15818 21485 ft 482 kts 172°
2026-05-04 10:40 23.95074 113.16686 21065 ft 479 kts 172°
2026-05-04 10:41 23.91830 113.17548 20643 ft 475 kts 172°
2026-05-04 10:41 23.88633 113.18398 20227 ft 471 kts 172°
2026-05-04 10:41 23.85436 113.19245 19805 ft 469 kts 172°
2026-05-04 10:41 23.82296 113.20078 19382 ft 467 kts 172°
2026-05-04 10:42 23.79153 113.20911 18968 ft 464 kts 172°
2026-05-04 10:42 23.76003 113.21745 18547 ft 461 kts 171°
2026-05-04 10:42 23.72871 113.22575 18117 ft 458 kts 171°
2026-05-04 10:42 23.69866 113.23332 17716 ft 451 kts 175°
2026-05-04 10:43 23.66803 113.23666 17299 ft 442 kts 184°
2026-05-04 10:44 23.46379 113.19946 14330 ft 412 kts 195°
2026-05-04 10:45 23.43567 113.19352 13907 ft 409 kts 195°
2026-05-04 10:45 23.40762 113.18760 13482 ft 404 kts 195°
2026-05-04 10:45 23.38035 113.18185 13063 ft 395 kts 195°
2026-05-04 10:45 23.35383 113.17628 12655 ft 386 kts 195°
2026-05-04 10:46 23.32778 113.17079 12108 ft 376 kts 195°
2026-05-04 10:46 23.30241 113.16546 11487 ft 361 kts 195°
2026-05-04 10:46 23.27807 113.16033 10879 ft 350 kts 195°
2026-05-04 10:46 23.25465 113.15540 10283 ft 342 kts 195°
2026-05-04 10:47 23.23139 113.15049 9649 ft 333 kts 195°
2026-05-04 10:47 23.20922 113.14581 9027 ft 325 kts 194°
2026-05-04 10:47 23.18716 113.14095 8388 ft 317 kts 196°
2026-05-04 10:47 23.16612 113.13519 7755 ft 311 kts 197°
2026-05-04 10:49 23.02999 113.09828 5637 ft 295 kts 195°
2026-05-04 10:49 23.00956 113.09282 4982 ft 302 kts 194°
2026-05-04 10:50 22.98872 113.08991 4319 ft 299 kts 174°
2026-05-04 10:51 22.97894 113.17896 3876 ft 219 kts
2026-05-04 10:52 22.99299 113.17734 3888 ft 218 kts 345°
2026-05-04 10:52 23.00783 113.17525 3881 ft 216 kts
2026-05-04 10:52 23.02245 113.17863 3911 ft 218 kts 15°
2026-05-04 10:54 23.12454 113.20630 3895 ft 216 kts 15°
2026-05-04 10:54 23.13898 113.21021 3892 ft 207 kts 15°
2026-05-04 10:56 23.22994 113.23489 3009 ft 185 kts 15°
2026-05-04 10:56 23.24247 113.23826 2775 ft 185 kts 15°
2026-05-04 10:56 23.25494 113.24159 2538 ft 184 kts 15°
2026-05-04 10:57 23.26757 113.24498 2295 ft 184 kts 15°
2026-05-04 10:57 23.28011 113.24834 2054 ft 184 kts 15°
2026-05-04 10:57 23.29244 113.25165 1816 ft 182 kts 15°
2026-05-04 10:57 23.30447 113.25487 1580 ft 171 kts 15°
2026-05-04 10:58 23.31549 113.25784 1369 ft 161 kts 15°
2026-05-04 10:58 23.32586 113.26062 1170 ft 148 kts 15°
2026-05-04 10:58 23.33570 113.26322 942 ft 145 kts 14°
2026-05-04 10:58 23.34547 113.26570 724 ft 142 kts 15°
2026-05-04 10:59 23.35514 113.26856 527 ft 143 kts 15°
2026-05-04 10:59 23.36482 113.27108 381 ft 139 kts 13°
2026-05-04 10:59 23.37477 113.27362 205 ft 145 kts 14°
2026-05-04 10:59 23.38445 113.27631 69 ft 142 kts 15°
2026-05-04 11:00 23.39308 113.27864 57 ft 109 kts 14°
2026-05-04 11:01 23.40774 113.28436 57 ft 3 kts 28°
2026-05-04 11:02 23.40794 113.28442 57 ft 3 kts 10°
2026-05-04 11:02 23.40847 113.28452 57 ft 11 kts 12°
2026-05-04 11:05 23.41699 113.29569 57 ft 21 kts 104°
2026-05-04 11:06 23.41627 113.29615 57 ft 10 kts 185°
2026-05-04 11:06 23.41497 113.29582 57 ft 29 kts 195°
2026-05-04 11:06 23.41271 113.29521 57 ft 33 kts 194°
2026-05-04 11:06 23.41048 113.29492 57 ft 30 kts 166°
2026-05-04 11:08 23.39658 113.29163 57 ft 28 kts 194°
2026-05-04 11:10 23.38701 113.28971 57 ft 4 kts 131°
2026-05-04 11:12 23.38602 113.29090 57 ft 0 kts 123°